Voltar ao catálogo

STARLINK-36857

AtivoComunicaçõesVLEO
NORAD 68518·PAYLOAD·🇺🇸 United States

Lançado Mar 30, 2026 de Cape Canaveral Space Force Station

Loading…

Próximas Passagens (próximas 24 horas)

TLE

AtualizadoSource: CelesTrak SupGP

Época: Sep 15, 2026, 03:19 UTC

1 68518C 26068L   26258.13868056  .00051407  00000+0  15187-2 0  2588
2 68518  53.1597 324.6398 0000976  77.3417   9.1783 15.34369258    11

Acompanhe STARLINK-36857 em tempo real com AllMySat

Download on the App Store